| time (UTC) | temp F | wind direction | speed MPH | gust MPH | rain 1hr in | rain 24hr in | rain mn in | humidity % | barometer mb |
| 20260506223014 | 58 | 242 | 1.0 | 4.0 | 0.00 | 0.14 | 0.00 | 87 | 1011.7 |
| 20260506221512 | 58 | 242 | 2.0 | 5.0 | 0.00 | 0.14 | 0.00 | 87 | 1011.7 |
| 20260506220012 | 58 | 242 | 2.0 | 4.0 | 0.00 | 0.14 | 0.00 | 86 | 1011.6 |
| 20260506214511 | 58 | 245 | 2.0 | 4.0 | 0.00 | 0.14 | 0.14 | 86 | 1011.5 |
| 20260506213010 | 59 | 259 | 2.0 | 4.0 | 0.00 | 0.14 | 0.14 | 84 | 1011.7 |
| 20260506211516 | 60 | 259 | 0.0 | 1.0 | 0.00 | 0.14 | 0.14 | 82 | 1011.5 |
| 20260506210016 | 61 | 259 | 0.0 | 0.0 | 0.00 | 0.14 | 0.14 | 79 | 1011.4 |
| 20260506204516 | 62 | 130 | 1.0 | 8.0 | 0.00 | 0.14 | 0.14 | 79 | 1011.3 |
| 20260506203022 | 62 | 70 | 5.0 | 11.0 | 0.00 | 0.14 | 0.14 | 79 | 1011.3 |
| 20260506201529 | 63 | 314 | 0.0 | 3.0 | 0.00 | 0.14 | 0.14 | 78 | 1011.1 |
| 20260506200015 | 63 | 90 | 0.0 | 3.0 | 0.00 | 0.14 | 0.14 | 78 | 1010.9 |
| 20260506194521 | 63 | 287 | 0.0 | 6.0 | 0.00 | 0.14 | 0.14 | 78 | 1010.6 |
| 20260506193021 | 63 | 112 | 1.0 | 10.0 | 0.00 | 0.14 | 0.14 | 77 | 1010.2 |
| 20260506191516 | 63 | 113 | 0.0 | 3.0 | 0.00 | 0.14 | 0.14 | 76 | 1010.1 |
| 20260506190022 | 63 | 135 | 0.0 | 2.0 | 0.00 | 0.14 | 0.14 | 75 | 1009.7 |
| 20260506184521 | 63 | 276 | 1.0 | 6.0 | 0.00 | 0.14 | 0.14 | 74 | 1009.5 |
| 20260506183027 | 64 | 293 | 1.0 | 5.0 | 0.00 | 0.14 | 0.14 | 73 | 1009.3 |
| 20260506181520 | 64 | 311 | 4.0 | 9.0 | 0.00 | 0.14 | 0.14 | 73 | 1009.3 |
| 20260506180008 | 64 | 143 | 1.0 | 14.0 | 0.00 | 0.14 | 0.14 | 73 | 1009.0 |
| 20260506174508 | 64 | 118 | 0.0 | 13.0 | 0.00 | 0.14 | 0.14 | 73 | 1009.0 |
| 20260506173004 | 64 | 144 | 1.0 | 10.0 | 0.00 | 0.14 | 0.14 | 73 | 1009.0 |
| 20260506171504 | 65 | 158 | 1.0 | 11.0 | 0.00 | 0.14 | 0.14 | 71 | 1009.0 |
| 20260506170003 | 65 | 101 | 2.0 | 11.0 | 0.00 | 0.14 | 0.14 | 71 | 1009.0 |
| 20260506164506 | 65 | 109 | 2.0 | 11.0 | 0.00 | 0.14 | 0.14 | 71 | 1009.0 |
| 20260506163004 | 65 | 94 | 2.0 | 11.0 | 0.00 | 0.14 | 0.14 | 71 | 1008.9 |
| 20260506161508 | 66 | 98 | 3.0 | 14.0 | 0.00 | 0.14 | 0.14 | 70 | 1009.0 |
| 20260506160008 | 66 | 252 | 2.0 | 10.0 | 0.00 | 0.14 | 0.14 | 70 | 1008.9 |
| 20260506154503 | 66 | 111 | 4.0 | 12.0 | 0.00 | 0.14 | 0.14 | 70 | 1009.0 |
| 20260506153004 | 66 | 10 | 2.0 | 11.0 | 0.00 | 0.14 | 0.14 | 70 | 1008.9 |
| 20260506151506 | 66 | 68 | 2.0 | 11.0 | 0.00 | 0.14 | 0.14 | 71 | 1009.0 |
| 20260506150008 | 66 | 121 | 1.0 | 8.0 | 0.00 | 0.14 | 0.14 | 72 | 1008.9 |
| 20260506144515 | 66 | 121 | 4.0 | 15.0 | 0.00 | 0.14 | 0.14 | 72 | 1009.0 |
| 20260506143020 | 66 | 115 | 3.0 | 12.0 | 0.00 | 0.14 | 0.14 | 71 | 1009.0 |
| 20260506141507 | 66 | 75 | 4.0 | 18.0 | 0.00 | 0.14 | 0.14 | 70 | 1008.8 |
| 20260506140007 | 66 | 30 | 2.0 | 14.0 | 0.00 | 0.14 | 0.14 | 70 | 1009.0 |
| 20260506134513 | 66 | 213 | 5.0 | 20.0 | 0.00 | 0.14 | 0.14 | 70 | 1009.1 |
| 20260506133016 | 67 | 112 | 7.0 | 12.0 | 0.00 | 0.14 | 0.14 | 69 | 1009.3 |
| 20260506131515 | 67 | 88 | 4.0 | 12.0 | 0.00 | 0.14 | 0.14 | 69 | 1009.2 |
| 20260506130015 | 67 | 112 | 4.0 | 15.0 | 0.00 | 0.14 | 0.14 | 69 | 1009.2 |
| 20260506124507 | 67 | 107 | 3.0 | 18.0 | 0.00 | 0.14 | 0.14 | 70 | 1009.3 |
| 20260506123008 | 67 | 82 | 3.0 | 11.0 | 0.00 | 0.14 | 0.14 | 68 | 1009.2 |
| 20260506121522 | 67 | 24 | 2.0 | 14.0 | 0.00 | 0.14 | 0.14 | 69 | 1009.2 |
| 20260506120037 | 67 | 146 | 2.0 | 14.0 | 0.00 | 0.14 | 0.14 | 68 | 1009.4 |
| 20260506114522 | 67 | 197 | 4.0 | 16.0 | 0.00 | 0.14 | 0.14 | 69 | 1009.4 |
| 20260506113032 | 67 | 313 | 4.0 | 17.0 | 0.00 | 0.14 | 0.14 | 70 | 1009.4 |
| 20260506111528 | 67 | 117 | 3.0 | 15.0 | 0.00 | 0.14 | 0.14 | 68 | 1009.4 |
| 20260506110013 | 67 | 92 | 5.0 | 19.0 | 0.00 | 0.14 | 0.14 | 66 | 1009.6 |
| 20260506104525 | 67 | 100 | 6.0 | 18.0 | 0.00 | 0.14 | 0.14 | 66 | 1009.6 |
| 20260506103030 | 67 | 119 | 6.0 | 14.0 | 0.00 | 0.14 | 0.14 | 70 | 1009.7 |
| 20260506101511 | 66 | 360 | 5.0 | 15.0 | 0.00 | 0.14 | 0.14 | 70 | 1009.7 |
| 20260506100018 | 66 | 84 | 6.0 | 15.0 | 0.00 | 0.14 | 0.14 | 70 | 1009.8 |
| 20260506094520 | 66 | 241 | 5.0 | 14.0 | 0.00 | 0.14 | 0.14 | 68 | 1009.7 |
| 20260506093019 | 66 | 92 | 2.0 | 8.0 | 0.00 | 0.14 | 0.14 | 68 | 1009.7 |
| 20260506091526 | 66 | 252 | 3.0 | 8.0 | 0.00 | 0.14 | 0.14 | 70 | 1009.7 |
| 20260506090018 | 66 | 107 | 1.0 | 3.0 | 0.00 | 0.14 | 0.14 | 70 | 1009.6 |
| 20260506084507 | 65 | 125 | 1.0 | 6.0 | 0.00 | 0.14 | 0.14 | 72 | 1009.6 |
| 20260506083006 | 65 | 123 | 1.0 | 6.0 | 0.00 | 0.14 | 0.14 | 72 | 1009.6 |
| 20260506081504 | 64 | 129 | 1.0 | 7.0 | 0.00 | 0.14 | 0.14 | 74 | 1009.7 |
| 20260506073015 | 62 | 144 | 2.0 | 7.0 | 0.00 | 0.18 | 0.14 | 78 | 1009.6 |
| 20260506071505 | 62 | 290 | 0.0 | 7.0 | 0.00 | 0.18 | 0.14 | 78 | 1009.4 |
| 20260506061543 | 58 | 283 | 2.0 | 4.0 | 0.00 | 0.18 | 0.14 | 90 | 1008.8 |
| 20260506044524 | 56 | 246 | 0.0 | 4.0 | 0.09 | 0.18 | 0.14 | 91 | 1009.4 |
| 20260506043031 | 56 | 280 | 4.0 | 11.0 | 0.07 | 0.15 | 0.11 | 91 | 1009.7 |
| 20260506041521 | 57 | 250 | 5.0 | 8.0 | 0.02 | 0.11 | 0.07 | 92 | 1009.7 |
| 20260506040019 | 57 | 250 | 2.0 | 4.0 | 0.00 | 0.10 | 0.04 | 92 | 1009.5 |
| 20260506034509 | 57 | 246 | 2.0 | 4.0 | 0.00 | 0.11 | 0.04 | 92 | 1009.6 |
| 20260506033027 | 57 | 248 | 2.0 | 4.0 | 0.00 | 0.12 | 0.04 | 91 | 1009.7 |
| 20260506031513 | 56 | 257 | 1.0 | 3.0 | 0.00 | 0.15 | 0.04 | 91 | 1009.8 |
| 20260506030004 | 56 | 261 | 3.0 | 4.0 | 0.00 | 0.22 | 0.04 | 91 | 1010.0 |
| 20260506024510 | 57 | 240 | 2.0 | 4.0 | 0.00 | 0.31 | 0.03 | 91 | 1010.1 |
| 20260506023009 | 57 | 246 | 2.0 | 4.0 | 0.00 | 0.35 | 0.03 | 91 | 1010.0 |
| 20260506021512 | 57 | 246 | 2.0 | 4.0 | 0.00 | 0.38 | 0.03 | 91 | 1010.3 |
| 20260506020012 | 57 | 251 | 2.0 | 4.0 | 0.00 | 0.40 | 0.03 | 91 | 1010.4 |
| 20260506014507 | 56 | 247 | 2.0 | 4.0 | 0.00 | 0.44 | 0.03 | 91 | 1010.4 |
| 20260506013004 | 56 | 258 | 2.0 | 4.0 | 0.00 | 0.51 | 0.03 | 90 | 1010.8 |
| 20260506011507 | 56 | 244 | 1.0 | 5.0 | 0.00 | 0.55 | 0.03 | 90 | 1010.7 |
| 20260506010012 | 57 | 257 | 2.0 | 6.0 | 0.00 | 0.60 | 0.03 | 90 | 1010.8 |
| 20260506004519 | 57 | 251 | 2.0 | 5.0 | 0.01 | 0.65 | 0.03 | 90 | 1011.1 |
| 20260506003016 | 57 | 235 | 2.0 | 4.0 | 0.02 | 0.70 | 0.03 | 89 | 1011.1 |
| 20260506001508 | 57 | 238 | 3.0 | 6.0 | 0.03 | 0.75 | 0.03 | 89 | 1011.1 |
| 20260506000011 | 58 | 242 | 4.0 | 6.0 | 0.03 | 0.76 | 0.03 | 89 | 1011.1 |
| 20260505234507 | 58 | 245 | 2.0 | 4.0 | 0.02 | 0.77 | 0.02 | 88 | 1012.4 |
| 20260505233022 | 58 | 277 | 2.0 | 8.0 | 0.01 | 0.78 | 0.01 | 88 | 1012.4 |
| 20260505231524 | 58 | 242 | 3.0 | 7.0 | 0.00 | 0.81 | 0.00 | 88 | 1012.1 |
| 20260505230008 | 58 | 254 | 2.0 | 6.0 | 0.00 | 0.85 | 0.00 | 88 | 1011.9 |
| 20260505224516 | 58 | 257 | 1.0 | 3.0 | 0.00 | 0.86 | 0.00 | 89 | 1011.9 |